Year,Month,Day,Hour,Minute,Value (Times are PST for temperature in C)
2010,08,15,00,00,19.30
2010,08,15,00,01,19.30
2010,08,15,00,02,19.30
2010,08,15,00,03,19.20
2010,08,15,00,04,19.20
2010,08,15,00,05,19.20
2010,08,15,00,06,19.20
2010,08,15,00,07,19.20
2010,08,15,00,08,19.20
2010,08,15,00,09,19.10
2010,08,15,00,10,19.10
2010,08,15,00,11,19.10
2010,08,15,00,12,19.10
2010,08,15,00,13,19.10
2010,08,15,00,14,19.10
2010,08,15,00,15,19.10
2010,08,15,00,16,19.00
2010,08,15,00,17,19.00
2010,08,15,00,18,19.00
2010,08,15,00,19,19.00
2010,08,15,00,20,19.00
2010,08,15,00,21,19.00
2010,08,15,00,22,18.90
2010,08,15,00,23,18.90
2010,08,15,00,24,18.90
2010,08,15,00,25,18.90
2010,08,15,00,26,18.80
2010,08,15,00,27,18.80
2010,08,15,00,28,18.80
2010,08,15,00,29,18.80
2010,08,15,00,30,18.70
2010,08,15,00,31,18.70
2010,08,15,00,32,18.70
2010,08,15,00,33,18.70
2010,08,15,00,34,18.70
2010,08,15,00,35,18.70
2010,08,15,00,36,18.60
2010,08,15,00,37,18.70
2010,08,15,00,38,18.70
2010,08,15,00,39,18.60
2010,08,15,00,40,18.60
2010,08,15,00,41,18.60
2010,08,15,00,42,18.60
2010,08,15,00,43,18.60
2010,08,15,00,44,18.60
2010,08,15,00,45,18.60
2010,08,15,00,46,18.60
2010,08,15,00,47,18.60
2010,08,15,00,48,18.60
2010,08,15,00,49,18.60
2010,08,15,00,50,18.60
2010,08,15,00,51,18.60
2010,08,15,00,52,18.60
2010,08,15,00,53,18.60
2010,08,15,00,54,18.60
2010,08,15,00,55,18.50
2010,08,15,00,56,18.50
2010,08,15,00,57,18.50
2010,08,15,00,58,18.50
2010,08,15,00,59,18.50
2010,08,15,01,00,18.50
2010,08,15,01,01,18.40
2010,08,15,01,02,18.40
2010,08,15,01,03,18.40
2010,08,15,01,04,18.40
2010,08,15,01,05,18.40
2010,08,15,01,06,18.40
2010,08,15,01,07,18.30
2010,08,15,01,08,18.30
2010,08,15,01,09,18.30
2010,08,15,01,10,18.30
2010,08,15,01,11,18.30
2010,08,15,01,12,18.30
2010,08,15,01,13,18.30
2010,08,15,01,14,18.30
2010,08,15,01,15,18.30
2010,08,15,01,16,18.30
2010,08,15,01,17,18.20
2010,08,15,01,18,18.30
2010,08,15,01,19,18.20
2010,08,15,01,20,18.20
2010,08,15,01,21,18.20
2010,08,15,01,22,18.20
2010,08,15,01,23,18.20
2010,08,15,01,24,18.20
2010,08,15,01,25,18.20
2010,08,15,01,26,18.20
2010,08,15,01,27,18.20
2010,08,15,01,28,18.20
2010,08,15,01,29,18.20
2010,08,15,01,30,18.20
2010,08,15,01,31,18.20
2010,08,15,01,32,18.20
2010,08,15,01,33,18.20
2010,08,15,01,34,18.20
2010,08,15,01,35,18.20
2010,08,15,01,36,18.20
2010,08,15,01,37,18.20
2010,08,15,01,38,18.20
2010,08,15,01,39,18.20
2010,08,15,01,40,18.20
2010,08,15,01,41,18.20
2010,08,15,01,42,18.20
2010,08,15,01,43,18.20
2010,08,15,01,44,18.20
2010,08,15,01,45,18.20
2010,08,15,01,46,18.20
2010,08,15,01,47,18.20
2010,08,15,01,48,18.20
2010,08,15,01,49,18.20
2010,08,15,01,50,18.20
2010,08,15,01,51,18.20
2010,08,15,01,52,18.20
2010,08,15,01,53,18.20
2010,08,15,01,54,18.20
2010,08,15,01,55,18.10
2010,08,15,01,56,18.10
2010,08,15,01,57,18.10
2010,08,15,01,58,18.10
2010,08,15,01,59,18.10
2010,08,15,02,00,18.10
2010,08,15,02,01,18.10
2010,08,15,02,02,18.10
2010,08,15,02,03,18.10
2010,08,15,02,04,18.10
2010,08,15,02,05,18.10
2010,08,15,02,06,18.10
2010,08,15,02,07,18.10
2010,08,15,02,08,18.00
2010,08,15,02,09,18.00
2010,08,15,02,10,18.00
2010,08,15,02,11,18.00
2010,08,15,02,12,17.90
2010,08,15,02,13,17.90
2010,08,15,02,14,17.90
2010,08,15,02,15,17.90
2010,08,15,02,16,17.90
2010,08,15,02,17,17.90
2010,08,15,02,18,17.90
2010,08,15,02,19,17.90
2010,08,15,02,20,17.90
2010,08,15,02,21,17.90
2010,08,15,02,22,17.90
2010,08,15,02,23,17.80
2010,08,15,02,24,17.80
2010,08,15,02,25,17.80
2010,08,15,02,26,17.80
2010,08,15,02,27,17.80
2010,08,15,02,28,17.80
2010,08,15,02,29,17.70
2010,08,15,02,30,17.70
2010,08,15,02,31,17.70
2010,08,15,02,32,17.70
2010,08,15,02,33,17.70
2010,08,15,02,34,17.70
2010,08,15,02,35,17.70
2010,08,15,02,36,17.70
2010,08,15,02,37,17.70
2010,08,15,02,38,17.70
2010,08,15,02,39,17.70
2010,08,15,02,40,17.60
2010,08,15,02,41,17.60
2010,08,15,02,42,17.60
2010,08,15,02,43,17.60
2010,08,15,02,44,17.60
2010,08,15,02,45,17.60
2010,08,15,02,46,17.60
2010,08,15,02,47,17.60
2010,08,15,02,48,17.60
2010,08,15,02,49,17.60
2010,08,15,02,50,17.60
2010,08,15,02,51,17.60
2010,08,15,02,52,17.60
2010,08,15,02,53,17.60
2010,08,15,02,54,17.60
2010,08,15,02,55,17.50
2010,08,15,02,56,17.50
2010,08,15,02,57,17.50
2010,08,15,02,58,17.50
2010,08,15,02,59,17.40
2010,08,15,03,00,17.40
2010,08,15,03,01,17.40
2010,08,15,03,02,17.40
2010,08,15,03,03,17.40
2010,08,15,03,04,17.40
2010,08,15,03,05,17.40
2010,08,15,03,06,17.40
2010,08,15,03,07,17.40
2010,08,15,03,08,17.30
2010,08,15,03,09,17.30
2010,08,15,03,10,17.30
2010,08,15,03,11,17.30
2010,08,15,03,12,17.30
2010,08,15,03,13,17.30
2010,08,15,03,14,17.20
2010,08,15,03,15,17.20
2010,08,15,03,16,17.20
2010,08,15,03,17,17.20
2010,08,15,03,18,17.10
2010,08,15,03,19,17.10
2010,08,15,03,20,17.10
2010,08,15,03,21,17.10
2010,08,15,03,22,17.00
2010,08,15,03,23,17.00
2010,08,15,03,24,17.00
2010,08,15,03,25,16.90
2010,08,15,03,26,16.90
2010,08,15,03,27,16.90
2010,08,15,03,28,16.80
2010,08,15,03,29,16.80
2010,08,15,03,30,16.80
2010,08,15,03,31,16.80
2010,08,15,03,32,16.80
2010,08,15,03,33,16.70
2010,08,15,03,34,16.70
2010,08,15,03,35,16.70
2010,08,15,03,36,16.70
2010,08,15,03,37,16.70
2010,08,15,03,38,16.70
2010,08,15,03,39,16.70
2010,08,15,03,40,16.70
2010,08,15,03,41,16.80
2010,08,15,03,42,16.80
2010,08,15,03,43,16.80
2010,08,15,03,44,16.80
2010,08,15,03,45,16.80
2010,08,15,03,46,16.80
2010,08,15,03,47,16.80
2010,08,15,03,48,16.80
2010,08,15,03,49,16.80
2010,08,15,03,50,16.80
2010,08,15,03,51,16.80
2010,08,15,03,52,16.80
2010,08,15,03,53,16.80
2010,08,15,03,54,16.80
2010,08,15,03,55,16.80
2010,08,15,03,56,16.80
2010,08,15,03,57,16.80
2010,08,15,03,58,16.80
2010,08,15,03,59,16.80
2010,08,15,04,00,16.80
2010,08,15,04,01,16.80
2010,08,15,04,02,16.80
2010,08,15,04,03,16.80
2010,08,15,04,04,16.80
2010,08,15,04,05,16.80
2010,08,15,04,06,16.80
2010,08,15,04,07,16.80
2010,08,15,04,08,16.80
2010,08,15,04,09,16.80
2010,08,15,04,10,16.80
2010,08,15,04,11,16.80
2010,08,15,04,12,16.80
2010,08,15,04,13,16.80
2010,08,15,04,14,16.80
2010,08,15,04,15,16.80
2010,08,15,04,16,16.80
2010,08,15,04,17,16.80
2010,08,15,04,18,16.70
2010,08,15,04,19,16.70
2010,08,15,04,20,16.70
2010,08,15,04,21,16.70
2010,08,15,04,22,16.70
2010,08,15,04,23,16.70
2010,08,15,04,24,16.70
2010,08,15,04,25,16.70
2010,08,15,04,26,16.70
2010,08,15,04,27,16.70
2010,08,15,04,28,16.70
2010,08,15,04,29,16.70
2010,08,15,04,30,16.70
2010,08,15,04,31,16.70
2010,08,15,04,32,16.70
2010,08,15,04,33,16.70
2010,08,15,04,34,16.70
2010,08,15,04,35,16.70
2010,08,15,04,36,16.70
2010,08,15,04,37,16.70
2010,08,15,04,38,16.60
2010,08,15,04,39,16.60
2010,08,15,04,40,16.60
2010,08,15,04,41,16.60
2010,08,15,04,42,16.60
2010,08,15,04,43,16.60
2010,08,15,04,44,16.60
2010,08,15,04,45,16.60
2010,08,15,04,46,16.50
2010,08,15,04,47,16.50
2010,08,15,04,48,16.50
2010,08,15,04,49,16.50
2010,08,15,04,50,16.50
2010,08,15,04,51,16.50
2010,08,15,04,52,16.40
2010,08,15,04,53,16.40
2010,08,15,04,54,16.50
2010,08,15,04,55,16.40
2010,08,15,04,56,16.40
2010,08,15,04,57,16.40
2010,08,15,04,58,16.40
2010,08,15,04,59,16.40
2010,08,15,05,00,16.40
2010,08,15,05,01,16.40
2010,08,15,05,02,16.40
2010,08,15,05,03,16.30
2010,08,15,05,04,16.30
2010,08,15,05,05,16.30
2010,08,15,05,06,16.30
2010,08,15,05,07,16.30
2010,08,15,05,08,16.30
2010,08,15,05,09,16.30
2010,08,15,05,10,16.30
2010,08,15,05,11,16.30
2010,08,15,05,12,16.40
2010,08,15,05,13,16.40
2010,08,15,05,14,16.40
2010,08,15,05,15,16.40
2010,08,15,05,16,16.40
2010,08,15,05,17,16.40
2010,08,15,05,18,16.40
2010,08,15,05,19,16.40
2010,08,15,05,20,16.40
2010,08,15,05,21,16.40
2010,08,15,05,22,16.40
2010,08,15,05,23,16.40
2010,08,15,05,24,16.40
2010,08,15,05,25,16.30
2010,08,15,05,26,16.40
2010,08,15,05,27,16.40
2010,08,15,05,28,16.40
2010,08,15,05,29,16.30
2010,08,15,05,30,16.30
2010,08,15,05,31,16.30
2010,08,15,05,32,16.30
2010,08,15,05,33,16.30
2010,08,15,05,34,16.30
2010,08,15,05,35,16.30
2010,08,15,05,36,16.30
2010,08,15,05,37,16.30
2010,08,15,05,38,16.30
2010,08,15,05,39,16.30
2010,08,15,05,40,16.30
2010,08,15,05,41,16.30
2010,08,15,05,42,16.20
2010,08,15,05,43,16.20
2010,08,15,05,44,16.20
2010,08,15,05,45,16.20
2010,08,15,05,46,16.20
2010,08,15,05,47,16.20
2010,08,15,05,48,16.20
2010,08,15,05,49,16.20
2010,08,15,05,50,16.20
2010,08,15,05,51,16.20
2010,08,15,05,52,16.20
2010,08,15,05,53,16.20
2010,08,15,05,54,16.20
2010,08,15,05,55,16.10
2010,08,15,05,56,16.10
2010,08,15,05,57,16.10
2010,08,15,05,58,16.10
2010,08,15,05,59,16.10
2010,08,15,06,00,16.10
2010,08,15,06,01,16.10
2010,08,15,06,02,16.10
2010,08,15,06,03,16.10
2010,08,15,06,04,16.10
2010,08,15,06,05,16.10
2010,08,15,06,06,16.10
2010,08,15,06,07,16.10
2010,08,15,06,08,16.10
2010,08,15,06,09,16.10
2010,08,15,06,10,16.10
2010,08,15,06,11,16.10
2010,08,15,06,12,16.00
2010,08,15,06,13,16.00
2010,08,15,06,14,16.00
2010,08,15,06,15,15.90
2010,08,15,06,16,15.90
2010,08,15,06,17,15.90
2010,08,15,06,18,15.90
2010,08,15,06,19,15.80
2010,08,15,06,20,15.80
2010,08,15,06,21,15.80
2010,08,15,06,22,15.80
2010,08,15,06,23,15.80
2010,08,15,06,24,15.80
2010,08,15,06,25,15.80
2010,08,15,06,26,15.80
2010,08,15,06,27,15.80
2010,08,15,06,28,15.80
2010,08,15,06,29,15.80
2010,08,15,06,30,15.80
2010,08,15,06,31,15.80
2010,08,15,06,32,15.80
2010,08,15,06,33,15.80
2010,08,15,06,34,15.80
2010,08,15,06,35,15.80
2010,08,15,06,36,15.80
2010,08,15,06,37,15.80
2010,08,15,06,38,15.80
2010,08,15,06,39,15.80
2010,08,15,06,40,15.80
2010,08,15,06,41,15.80
2010,08,15,06,42,15.80
2010,08,15,06,43,15.80
2010,08,15,06,44,15.90
2010,08,15,06,45,15.90
2010,08,15,06,46,15.90
2010,08,15,06,47,15.90
2010,08,15,06,48,15.90
2010,08,15,06,49,15.90
2010,08,15,06,50,16.00
2010,08,15,06,51,16.10
2010,08,15,06,52,16.10
2010,08,15,06,53,16.10
2010,08,15,06,54,16.20
2010,08,15,06,55,16.20
2010,08,15,06,56,16.20
2010,08,15,06,57,16.30
2010,08,15,06,58,16.30
2010,08,15,06,59,16.30
2010,08,15,07,00,16.30
2010,08,15,07,01,16.30
2010,08,15,07,02,16.30
2010,08,15,07,03,16.40
2010,08,15,07,04,16.40
2010,08,15,07,05,16.40
2010,08,15,07,06,16.40
2010,08,15,07,07,16.40
2010,08,15,07,08,16.40
2010,08,15,07,09,16.40
2010,08,15,07,10,16.40
2010,08,15,07,11,16.40
2010,08,15,07,12,16.40
2010,08,15,07,13,16.40
2010,08,15,07,14,16.40
2010,08,15,07,15,16.40
2010,08,15,07,16,16.40
2010,08,15,07,17,16.40
2010,08,15,07,18,16.50
2010,08,15,07,19,16.40
2010,08,15,07,20,16.50
2010,08,15,07,21,16.50
2010,08,15,07,22,16.50
2010,08,15,07,23,16.50
2010,08,15,07,24,16.50
2010,08,15,07,25,16.50
2010,08,15,07,26,16.60
2010,08,15,07,27,16.60
2010,08,15,07,28,16.70
2010,08,15,07,29,16.70
2010,08,15,07,30,16.70
2010,08,15,07,31,16.80
2010,08,15,07,32,16.80
2010,08,15,07,33,16.80
2010,08,15,07,34,16.80
2010,08,15,07,35,16.90
2010,08,15,07,36,16.90
2010,08,15,07,37,16.90
2010,08,15,07,38,17.00
2010,08,15,07,39,17.00
2010,08,15,07,40,17.10
2010,08,15,07,41,17.10
2010,08,15,07,42,17.10
2010,08,15,07,43,17.10
2010,08,15,07,44,17.20
2010,08,15,07,45,17.20
2010,08,15,07,46,17.20
2010,08,15,07,47,17.30
2010,08,15,07,48,17.30
2010,08,15,07,49,17.30
2010,08,15,07,50,17.30
2010,08,15,07,51,17.40
2010,08,15,07,52,17.40
2010,08,15,07,53,17.40
2010,08,15,07,54,17.50
2010,08,15,07,55,17.50
2010,08,15,07,56,17.50
2010,08,15,07,57,17.60
2010,08,15,07,58,17.60
2010,08,15,07,59,17.70
2010,08,15,08,00,17.70
2010,08,15,08,01,17.70
2010,08,15,08,02,17.70
2010,08,15,08,03,17.80
2010,08,15,08,04,17.80
2010,08,15,08,05,17.80
2010,08,15,08,06,17.80
2010,08,15,08,07,17.90
2010,08,15,08,08,17.90
2010,08,15,08,09,18.00
2010,08,15,08,10,18.00
2010,08,15,08,11,18.10
2010,08,15,08,12,18.10
2010,08,15,08,13,18.20
2010,08,15,08,14,18.20
2010,08,15,08,15,18.20
2010,08,15,08,16,18.30
2010,08,15,08,17,18.30
2010,08,15,08,18,18.30
2010,08,15,08,19,18.40
2010,08,15,08,20,18.40
2010,08,15,08,21,18.50
2010,08,15,08,22,18.60
2010,08,15,08,23,18.60
2010,08,15,08,24,18.70
2010,08,15,08,25,18.70
2010,08,15,08,26,18.80
2010,08,15,08,27,18.80
2010,08,15,08,28,18.90
2010,08,15,08,29,18.90
2010,08,15,08,30,19.00
2010,08,15,08,31,19.10
2010,08,15,08,32,19.20
2010,08,15,08,33,19.20
2010,08,15,08,34,19.30
2010,08,15,08,35,19.40
2010,08,15,08,36,19.40
2010,08,15,08,37,19.50
2010,08,15,08,38,19.60
2010,08,15,08,39,19.60
2010,08,15,08,40,19.70
2010,08,15,08,41,19.80
2010,08,15,08,42,19.80
2010,08,15,08,43,19.90
2010,08,15,08,44,20.00
2010,08,15,08,45,20.10
2010,08,15,08,46,20.20
2010,08,15,08,47,20.30
2010,08,15,08,48,20.40
2010,08,15,08,49,20.50
2010,08,15,08,50,20.60
2010,08,15,08,51,20.70
2010,08,15,08,52,20.80
2010,08,15,08,53,20.90
2010,08,15,08,54,21.00
2010,08,15,08,55,21.10
2010,08,15,08,56,21.20
2010,08,15,08,57,21.20
2010,08,15,08,58,21.30
2010,08,15,08,59,21.40
2010,08,15,09,00,21.40
2010,08,15,09,01,21.50
2010,08,15,09,02,21.60
2010,08,15,09,03,21.70
2010,08,15,09,04,21.80
2010,08,15,09,05,21.90
2010,08,15,09,06,22.00
2010,08,15,09,07,22.10
2010,08,15,09,08,22.30
2010,08,15,09,09,22.40
2010,08,15,09,10,22.50
2010,08,15,09,11,22.60
2010,08,15,09,12,22.70
2010,08,15,09,13,22.90
2010,08,15,09,14,23.00
2010,08,15,09,15,23.10
2010,08,15,09,16,23.20
2010,08,15,09,17,23.40
2010,08,15,09,18,23.50
2010,08,15,09,19,23.60
2010,08,15,09,20,23.60
2010,08,15,09,21,23.70
2010,08,15,09,22,23.70
2010,08,15,09,23,23.80
2010,08,15,09,24,23.80
2010,08,15,09,25,23.90
2010,08,15,09,26,23.90
2010,08,15,09,27,24.00
2010,08,15,09,28,24.00
2010,08,15,09,29,24.10
2010,08,15,09,30,24.20
2010,08,15,09,31,24.30
2010,08,15,09,32,24.30
2010,08,15,09,33,24.40
2010,08,15,09,34,24.50
2010,08,15,09,35,24.50
2010,08,15,09,36,24.60
2010,08,15,09,37,24.60
2010,08,15,09,38,24.70
2010,08,15,09,39,24.70
2010,08,15,09,40,24.80
2010,08,15,09,41,24.90
2010,08,15,09,42,24.90
2010,08,15,09,43,24.90
2010,08,15,09,44,25.00
2010,08,15,09,45,25.00
2010,08,15,09,46,25.10
2010,08,15,09,47,25.10
2010,08,15,09,48,25.10
2010,08,15,09,49,25.10
2010,08,15,09,50,25.20
2010,08,15,09,51,25.20
2010,08,15,09,52,25.20
2010,08,15,09,53,25.30
2010,08,15,09,54,25.30
2010,08,15,09,55,25.40
2010,08,15,09,56,25.40
2010,08,15,09,57,25.40
2010,08,15,09,58,25.40
2010,08,15,09,59,25.50
2010,08,15,10,00,25.50
2010,08,15,10,01,25.60
2010,08,15,10,02,25.60
2010,08,15,10,03,25.60
2010,08,15,10,04,25.70
2010,08,15,10,05,25.80
2010,08,15,10,06,25.90
2010,08,15,10,07,25.90
2010,08,15,10,08,26.00
2010,08,15,10,09,26.00
2010,08,15,10,10,26.10
2010,08,15,10,11,26.10
2010,08,15,10,12,26.10
2010,08,15,10,13,26.10
2010,08,15,10,14,26.20
2010,08,15,10,15,26.20
2010,08,15,10,16,26.20
2010,08,15,10,17,26.20
2010,08,15,10,18,26.30
2010,08,15,10,19,26.30
2010,08,15,10,20,26.30
2010,08,15,10,21,26.30
2010,08,15,10,22,26.30
2010,08,15,10,23,26.30
2010,08,15,10,24,26.30
2010,08,15,10,25,26.40
2010,08,15,10,26,26.40
2010,08,15,10,27,26.30
2010,08,15,10,28,26.30
2010,08,15,10,29,26.30
2010,08,15,10,30,26.30
2010,08,15,10,31,26.30
2010,08,15,10,32,26.30
2010,08,15,10,33,26.40
2010,08,15,10,34,26.50
2010,08,15,10,35,26.70
2010,08,15,10,36,26.80
2010,08,15,10,37,26.80
2010,08,15,10,38,26.90
2010,08,15,10,39,27.00
2010,08,15,10,40,27.10
2010,08,15,10,41,27.10
2010,08,15,10,42,27.20
2010,08,15,10,43,27.20
2010,08,15,10,44,27.20
2010,08,15,10,45,27.20
2010,08,15,10,46,27.20
2010,08,15,10,47,27.20
2010,08,15,10,48,27.30
2010,08,15,10,49,27.30
2010,08,15,10,50,27.30
2010,08,15,10,51,27.40
2010,08,15,10,52,27.40
2010,08,15,10,53,27.50
2010,08,15,10,54,27.60
2010,08,15,10,55,27.70
2010,08,15,10,56,27.80
2010,08,15,10,57,27.90
2010,08,15,10,58,28.10
2010,08,15,10,59,28.10
2010,08,15,11,00,28.20
2010,08,15,11,01,28.30
2010,08,15,11,02,28.40
2010,08,15,11,03,28.50
2010,08,15,11,04,28.60
2010,08,15,11,05,28.60
2010,08,15,11,06,28.70
2010,08,15,11,07,28.70
2010,08,15,11,08,28.80
2010,08,15,11,09,28.80
2010,08,15,11,10,28.80
2010,08,15,11,11,28.80
2010,08,15,11,12,28.70
2010,08,15,11,13,28.50
2010,08,15,11,14,28.30
2010,08,15,11,15,28.10
2010,08,15,11,16,28.10
2010,08,15,11,17,28.00
2010,08,15,11,18,28.00
2010,08,15,11,19,28.10
2010,08,15,11,20,28.10
2010,08,15,11,21,28.10
2010,08,15,11,22,28.20
2010,08,15,11,23,28.20
2010,08,15,11,24,28.30
2010,08,15,11,25,28.40
2010,08,15,11,26,28.50
2010,08,15,11,27,28.60
2010,08,15,11,28,28.80
2010,08,15,11,29,28.90
2010,08,15,11,30,29.10
2010,08,15,11,31,29.20
2010,08,15,11,32,29.30
2010,08,15,11,33,29.40
2010,08,15,11,34,29.50
2010,08,15,11,35,29.70
2010,08,15,11,36,29.70
2010,08,15,11,37,29.80
2010,08,15,11,38,29.80
2010,08,15,11,39,29.90
2010,08,15,11,40,29.90
2010,08,15,11,41,30.00
2010,08,15,11,42,30.10
2010,08,15,11,43,30.10
2010,08,15,11,44,30.20
2010,08,15,11,45,30.30
2010,08,15,11,46,30.30
2010,08,15,11,47,30.40
2010,08,15,11,48,30.40
2010,08,15,11,49,30.50
2010,08,15,11,50,30.40
2010,08,15,11,51,30.30
2010,08,15,11,52,30.30
2010,08,15,11,53,30.30
2010,08,15,11,54,30.30
2010,08,15,11,55,30.40
2010,08,15,11,56,30.40
2010,08,15,11,57,30.50
2010,08,15,11,58,30.50
2010,08,15,11,59,30.60
2010,08,15,12,00,30.60
2010,08,15,12,01,30.60
2010,08,15,12,02,30.70
2010,08,15,12,03,30.70
2010,08,15,12,04,30.70
2010,08,15,12,05,30.80
2010,08,15,12,06,30.80
2010,08,15,12,07,30.80
2010,08,15,12,08,30.80
2010,08,15,12,09,30.80
2010,08,15,12,10,30.90
2010,08,15,12,11,30.90
2010,08,15,12,12,31.00
2010,08,15,12,13,31.00
2010,08,15,12,14,31.10
2010,08,15,12,15,31.10
2010,08,15,12,16,31.10
2010,08,15,12,17,31.10
2010,08,15,12,18,31.10
2010,08,15,12,19,31.10
2010,08,15,12,20,31.10
2010,08,15,12,21,31.10
2010,08,15,12,22,31.10
2010,08,15,12,23,31.20
2010,08,15,12,24,31.20
2010,08,15,12,25,31.20
2010,08,15,12,26,31.20
2010,08,15,12,27,31.30
2010,08,15,12,28,31.30
2010,08,15,12,29,31.20
2010,08,15,12,30,31.30
2010,08,15,12,31,31.30
2010,08,15,12,32,31.40
2010,08,15,12,33,31.50
2010,08,15,12,34,31.60
2010,08,15,12,35,31.60
2010,08,15,12,36,31.70
2010,08,15,12,37,31.80
2010,08,15,12,38,31.80
2010,08,15,12,39,31.90
2010,08,15,12,40,31.90
2010,08,15,12,41,32.00
2010,08,15,12,42,32.00
2010,08,15,12,43,32.10
2010,08,15,12,44,32.20
2010,08,15,12,45,32.20
2010,08,15,12,46,32.20
2010,08,15,12,47,32.30
2010,08,15,12,48,32.30
2010,08,15,12,49,32.40
2010,08,15,12,50,32.40
2010,08,15,12,51,32.40
2010,08,15,12,52,32.40
2010,08,15,12,53,32.50
2010,08,15,12,54,32.50
2010,08,15,12,55,32.50
2010,08,15,12,56,32.50
2010,08,15,12,57,32.50
2010,08,15,12,58,32.50
2010,08,15,12,59,32.50
2010,08,15,13,00,32.60
2010,08,15,13,01,32.60
2010,08,15,13,02,32.60
2010,08,15,13,03,32.40
2010,08,15,13,04,32.30
2010,08,15,13,05,32.20
2010,08,15,13,06,32.10
2010,08,15,13,07,31.90
2010,08,15,13,08,31.90
2010,08,15,13,09,31.90
2010,08,15,13,10,31.90
2010,08,15,13,11,32.00
2010,08,15,13,12,32.10
2010,08,15,13,13,32.10
2010,08,15,13,14,32.20
2010,08,15,13,15,32.30
2010,08,15,13,16,32.40
2010,08,15,13,17,32.40
2010,08,15,13,18,32.50
2010,08,15,13,19,32.60
2010,08,15,13,20,32.60
2010,08,15,13,21,32.70
2010,08,15,13,22,32.70
2010,08,15,13,23,32.80
2010,08,15,13,24,32.90
2010,08,15,13,25,32.90
2010,08,15,13,26,33.00
2010,08,15,13,27,33.00
2010,08,15,13,28,33.10
2010,08,15,13,29,33.10
2010,08,15,13,30,33.20
2010,08,15,13,31,33.20
2010,08,15,13,32,33.20
2010,08,15,13,33,33.30
2010,08,15,13,34,33.30
2010,08,15,13,35,33.30
2010,08,15,13,36,33.40
2010,08,15,13,37,33.40
2010,08,15,13,38,33.40
2010,08,15,13,39,33.30
2010,08,15,13,40,33.30
2010,08,15,13,41,33.30
2010,08,15,13,42,33.30
2010,08,15,13,43,33.30
2010,08,15,13,44,33.40
2010,08,15,13,45,33.50
2010,08,15,13,46,33.50
2010,08,15,13,47,33.60
2010,08,15,13,48,33.70
2010,08,15,13,49,33.70
2010,08,15,13,50,33.60
2010,08,15,13,51,33.60
2010,08,15,13,52,33.60
2010,08,15,13,53,33.60
2010,08,15,13,54,33.50
2010,08,15,13,55,33.50
2010,08,15,13,56,33.40
2010,08,15,13,57,33.50
2010,08,15,13,58,33.50
2010,08,15,13,59,33.60
2010,08,15,14,00,33.60
2010,08,15,14,01,33.70
2010,08,15,14,02,33.70
2010,08,15,14,03,33.70
2010,08,15,14,04,33.70
2010,08,15,14,05,33.80
2010,08,15,14,06,33.80
2010,08,15,14,07,33.80
2010,08,15,14,08,33.80
2010,08,15,14,09,33.90
2010,08,15,14,10,33.90
2010,08,15,14,11,34.00
2010,08,15,14,12,34.10
2010,08,15,14,13,34.10
2010,08,15,14,14,34.10
2010,08,15,14,15,34.20
2010,08,15,14,16,34.20
2010,08,15,14,17,34.10
2010,08,15,14,18,34.10
2010,08,15,14,19,34.20
2010,08,15,14,20,34.20
2010,08,15,14,21,34.20
2010,08,15,14,22,34.30
2010,08,15,14,23,34.40
2010,08,15,14,24,34.50
2010,08,15,14,25,34.50
2010,08,15,14,26,34.60
2010,08,15,14,27,34.70
2010,08,15,14,28,34.80
2010,08,15,14,29,34.80
2010,08,15,14,30,34.80
2010,08,15,14,31,34.80
2010,08,15,14,32,34.90
2010,08,15,14,33,34.90
2010,08,15,14,34,34.90
2010,08,15,14,35,35.00
2010,08,15,14,36,35.10
2010,08,15,14,37,35.10
2010,08,15,14,38,35.20
2010,08,15,14,39,35.20
2010,08,15,14,40,35.20
2010,08,15,14,41,35.20
2010,08,15,14,42,35.20
2010,08,15,14,43,35.20
2010,08,15,14,44,35.30
2010,08,15,14,45,35.30
2010,08,15,14,46,35.30
2010,08,15,14,47,35.40
2010,08,15,14,48,35.40
2010,08,15,14,49,35.50
2010,08,15,14,50,35.60
2010,08,15,14,51,35.60
2010,08,15,14,52,35.70
2010,08,15,14,53,35.70
2010,08,15,14,54,35.70
2010,08,15,14,55,35.70
2010,08,15,14,56,35.70
2010,08,15,14,57,35.60
2010,08,15,14,58,35.60
2010,08,15,14,59,35.60
2010,08,15,15,00,35.60
2010,08,15,15,01,35.50
2010,08,15,15,02,35.50
2010,08,15,15,03,35.50
2010,08,15,15,04,35.40
2010,08,15,15,05,35.40
2010,08,15,15,06,35.40
2010,08,15,15,07,35.40
2010,08,15,15,08,35.30
2010,08,15,15,09,35.30
2010,08,15,15,10,35.30
2010,08,15,15,11,35.30
2010,08,15,15,12,35.30
2010,08,15,15,13,35.30
2010,08,15,15,14,35.40
2010,08,15,15,15,35.40
2010,08,15,15,16,35.40
2010,08,15,15,17,35.40
2010,08,15,15,18,35.40
2010,08,15,15,19,35.40
2010,08,15,15,20,35.40
2010,08,15,15,21,35.30
2010,08,15,15,22,35.20
2010,08,15,15,23,35.20
2010,08,15,15,24,35.20
2010,08,15,15,25,35.20
2010,08,15,15,26,35.20
2010,08,15,15,27,35.30
2010,08,15,15,28,35.30
2010,08,15,15,29,35.30
2010,08,15,15,30,35.30
2010,08,15,15,31,35.40
2010,08,15,15,32,35.50
2010,08,15,15,33,35.50
2010,08,15,15,34,35.50
2010,08,15,15,35,35.50
2010,08,15,15,36,35.50
2010,08,15,15,37,35.50
2010,08,15,15,38,35.60
2010,08,15,15,39,35.60
2010,08,15,15,40,35.60
2010,08,15,15,41,35.70
2010,08,15,15,42,35.70
2010,08,15,15,43,35.70
2010,08,15,15,44,35.80
2010,08,15,15,45,35.80
2010,08,15,15,46,35.80
2010,08,15,15,47,35.90
2010,08,15,15,48,35.90
2010,08,15,15,49,35.90
2010,08,15,15,50,35.90
2010,08,15,15,51,35.90
2010,08,15,15,52,35.90
2010,08,15,15,53,35.90
2010,08,15,15,54,35.80
2010,08,15,15,55,35.70
2010,08,15,15,56,35.60
2010,08,15,15,57,35.60
2010,08,15,15,58,35.60
2010,08,15,15,59,35.70
2010,08,15,16,00,35.70
2010,08,15,16,01,35.70
2010,08,15,16,02,35.80
2010,08,15,16,03,35.80
2010,08,15,16,04,35.80
2010,08,15,16,05,35.80
2010,08,15,16,06,35.70
2010,08,15,16,07,35.60
2010,08,15,16,08,35.60
2010,08,15,16,09,35.50
2010,08,15,16,10,35.50
2010,08,15,16,11,35.60
2010,08,15,16,12,35.50
2010,08,15,16,13,35.50
2010,08,15,16,14,35.50
2010,08,15,16,15,35.50
2010,08,15,16,16,35.50
2010,08,15,16,17,35.50
2010,08,15,16,18,35.50
2010,08,15,16,19,35.60
2010,08,15,16,20,35.60
2010,08,15,16,21,35.60
2010,08,15,16,22,35.60
2010,08,15,16,23,35.60
2010,08,15,16,24,35.70
2010,08,15,16,25,35.70
2010,08,15,16,26,35.80
2010,08,15,16,27,35.80
2010,08,15,16,28,35.80
2010,08,15,16,29,35.80
2010,08,15,16,30,35.80
2010,08,15,16,31,35.80
2010,08,15,16,32,35.80
2010,08,15,16,33,35.80
2010,08,15,16,34,35.90
2010,08,15,16,35,35.90
2010,08,15,16,36,36.00
2010,08,15,16,37,36.00
2010,08,15,16,38,36.10
2010,08,15,16,39,36.10
2010,08,15,16,40,36.20
2010,08,15,16,41,36.20
2010,08,15,16,42,36.30
2010,08,15,16,43,36.30
2010,08,15,16,44,36.30
2010,08,15,16,45,36.40
2010,08,15,16,46,36.40
2010,08,15,16,47,36.40
2010,08,15,16,48,36.30
2010,08,15,16,49,36.30
2010,08,15,16,50,36.30
2010,08,15,16,51,36.30
2010,08,15,16,52,36.30
2010,08,15,16,53,36.20
2010,08,15,16,54,36.20
2010,08,15,16,55,36.20
2010,08,15,16,56,36.20
2010,08,15,16,57,36.20
2010,08,15,16,58,36.20
2010,08,15,16,59,36.20
2010,08,15,17,00,36.30
2010,08,15,17,01,36.30
2010,08,15,17,02,36.30
2010,08,15,17,03,36.30
2010,08,15,17,04,36.30
2010,08,15,17,05,36.20
2010,08,15,17,06,36.20
2010,08,15,17,07,36.20
2010,08,15,17,08,36.20
2010,08,15,17,09,36.10
2010,08,15,17,10,36.10
2010,08,15,17,11,36.10
2010,08,15,17,12,36.00
2010,08,15,17,13,36.00
2010,08,15,17,14,36.00
2010,08,15,17,15,36.00
2010,08,15,17,16,36.00
2010,08,15,17,17,35.90
2010,08,15,17,18,35.80
2010,08,15,17,19,35.70